Year,Month,Day,Hour,Minute,Value (Times are PST for temperature in C)
2013,07,22,08,46,14.50
2013,07,22,08,47,14.50
2013,07,22,10,29,14.10
2013,07,22,10,30,14.00
2013,07,22,10,31,14.00
2013,07,22,10,32,14.00
2013,07,22,10,33,13.90
2013,07,22,10,34,13.90
2013,07,22,10,35,13.90
2013,07,22,10,36,13.80
2013,07,22,10,37,13.70
2013,07,22,10,38,13.70
2013,07,22,10,39,13.60
2013,07,22,10,40,13.50
2013,07,22,10,41,13.50
2013,07,22,10,42,13.50
2013,07,22,10,43,13.50
2013,07,22,10,44,13.50
2013,07,22,10,45,13.50
2013,07,22,10,46,13.50
2013,07,22,10,47,13.50
2013,07,22,10,48,13.50
2013,07,22,10,49,13.60
2013,07,22,10,50,13.60
2013,07,22,10,51,13.60
2013,07,22,10,52,13.60
2013,07,22,10,53,13.60
2013,07,22,10,54,13.60
2013,07,22,10,55,13.60
2013,07,22,10,56,13.50
2013,07,22,10,57,13.50
2013,07,22,10,58,13.40
2013,07,22,10,59,13.40
2013,07,22,11,00,13.40
2013,07,22,11,01,13.40
2013,07,22,11,02,13.50
2013,07,22,11,03,13.50
2013,07,22,11,04,13.60
2013,07,22,11,05,13.70
2013,07,22,11,06,13.70
2013,07,22,11,07,13.70
2013,07,22,11,08,13.70
2013,07,22,11,09,13.70
2013,07,22,11,10,13.80
2013,07,22,11,11,13.80
2013,07,22,11,12,13.70
2013,07,22,11,13,13.50
2013,07,22,11,14,13.50
2013,07,22,11,15,13.40
2013,07,22,11,16,13.30
2013,07,22,11,17,13.20
2013,07,22,11,18,13.10
2013,07,22,11,19,13.00
2013,07,22,11,20,13.00
2013,07,22,11,21,12.90
2013,07,22,11,22,12.80
2013,07,22,11,23,12.80
2013,07,22,11,24,12.70
2013,07,22,11,25,12.70
2013,07,22,11,26,12.60
2013,07,22,11,27,12.60
2013,07,22,11,28,12.60
2013,07,22,11,29,12.70
2013,07,22,11,30,12.70
2013,07,22,11,31,12.70
2013,07,22,11,32,12.70
2013,07,22,11,33,12.80
2013,07,22,11,34,12.80
2013,07,22,11,35,12.80
2013,07,22,11,36,12.80
2013,07,22,11,37,12.80
2013,07,22,11,38,12.80
2013,07,22,11,39,12.90
2013,07,22,11,40,12.80
2013,07,22,11,41,12.80
2013,07,22,11,42,12.80
2013,07,22,11,43,12.80
2013,07,22,11,44,12.70
2013,07,22,11,45,12.70
2013,07,22,11,46,12.70
2013,07,22,11,47,12.60
2013,07,22,11,48,12.60
2013,07,22,11,49,12.60
2013,07,22,11,50,12.50
2013,07,22,11,51,12.50
2013,07,22,11,52,12.40
2013,07,22,11,53,12.30
2013,07,22,11,54,12.30
2013,07,22,11,55,12.30
2013,07,22,11,56,12.30
2013,07,22,11,57,12.40
2013,07,22,11,58,12.40
2013,07,22,11,59,12.40
2013,07,22,12,00,12.40
2013,07,22,12,01,12.40
2013,07,22,12,02,12.40
2013,07,22,12,03,12.40
2013,07,22,12,04,12.40
2013,07,22,12,05,12.50
2013,07,22,12,06,12.40
2013,07,22,12,07,12.40
2013,07,22,12,08,12.50
2013,07,22,12,09,12.50
2013,07,22,12,10,12.50
2013,07,22,12,11,12.50
2013,07,22,12,12,12.50
2013,07,22,12,13,12.60
2013,07,22,12,14,12.60
2013,07,22,12,15,12.60
2013,07,22,12,16,12.60
2013,07,22,12,17,12.60
2013,07,22,12,18,12.60
2013,07,22,12,19,12.60
2013,07,22,12,20,12.60
2013,07,22,12,21,12.60
2013,07,22,12,22,12.70
2013,07,22,12,23,12.80
2013,07,22,12,24,12.80
2013,07,22,12,25,12.70
2013,07,22,12,26,12.80
2013,07,22,12,27,12.80
2013,07,22,12,28,12.90
2013,07,22,12,29,13.00
2013,07,22,12,30,13.10
2013,07,22,12,31,13.30
2013,07,22,12,32,13.30
2013,07,22,12,33,13.50
2013,07,22,12,34,13.60
2013,07,22,12,35,13.70
2013,07,22,12,36,13.70
2013,07,22,12,37,13.80
2013,07,22,12,38,14.00
2013,07,22,12,39,14.10
2013,07,22,12,40,14.30
2013,07,22,12,41,14.40
2013,07,22,12,42,14.50
2013,07,22,12,43,14.60
2013,07,22,12,44,14.60
2013,07,22,12,45,14.60
2013,07,22,12,46,14.70
2013,07,22,12,47,14.80
2013,07,22,12,48,14.80
2013,07,22,12,49,14.90
2013,07,22,12,50,14.90
2013,07,22,12,51,14.80
2013,07,22,12,52,14.80
2013,07,22,12,53,14.80
2013,07,22,12,54,15.00
2013,07,22,12,55,15.00
2013,07,22,12,56,15.00
2013,07,22,12,57,15.10
2013,07,22,12,58,15.10
2013,07,22,12,59,15.10
2013,07,22,13,00,15.20
2013,07,22,13,01,15.20
2013,07,22,13,02,15.20
2013,07,22,13,03,15.20
2013,07,22,13,04,15.10
2013,07,22,13,05,15.10
2013,07,22,13,06,15.10
2013,07,22,13,12,15.20
2013,07,22,13,13,15.20
2013,07,22,13,25,15.70
2013,07,22,13,36,15.60
2013,07,22,13,37,15.70
2013,07,22,13,39,15.80
2013,07,22,13,42,15.90
2013,07,22,13,43,15.80
2013,07,22,13,44,15.80
2013,07,22,13,45,15.90
2013,07,22,13,46,15.90
2013,07,22,13,48,15.90
2013,07,22,13,51,16.00
2013,07,22,13,52,16.00
2013,07,22,13,53,16.00
2013,07,22,13,54,16.10
2013,07,22,13,55,16.00
2013,07,22,13,56,15.90
2013,07,22,13,57,15.80
2013,07,22,13,58,15.80
2013,07,22,13,59,15.80
2013,07,22,14,00,15.70
2013,07,22,14,01,15.70
2013,07,22,14,02,15.70
2013,07,22,14,03,15.70
2013,07,22,14,04,15.70
2013,07,22,14,05,15.70
2013,07,22,14,06,15.70
2013,07,22,14,07,15.70
2013,07,22,14,08,15.80
2013,07,22,14,09,15.80
2013,07,22,14,10,15.80
2013,07,22,14,11,15.70
2013,07,22,14,12,15.80
2013,07,22,14,13,15.80
2013,07,22,14,14,15.80
2013,07,22,14,15,15.80
2013,07,22,14,16,15.80
2013,07,22,14,17,15.70
2013,07,22,14,18,15.70
2013,07,22,14,19,15.70
2013,07,22,14,20,15.70
2013,07,22,14,21,15.70
2013,07,22,14,22,15.70
2013,07,22,14,23,15.80
2013,07,22,14,24,15.80
2013,07,22,17,08,20.10
2013,07,22,17,13,20.30
2013,07,22,17,14,20.30
2013,07,22,17,18,20.30
2013,07,22,17,19,20.30
2013,07,22,17,20,20.20
2013,07,22,17,21,20.20
2013,07,22,17,27,20.80
2013,07,22,17,28,20.90
2013,07,22,17,29,21.00
2013,07,22,17,30,21.10
2013,07,22,17,37,20.90
2013,07,22,17,38,20.90
2013,07,22,17,39,20.90
2013,07,22,17,40,20.90
2013,07,22,17,41,20.90
2013,07,22,17,42,20.80
2013,07,22,17,43,20.90
2013,07,22,17,44,20.90
2013,07,22,17,46,21.10
2013,07,22,17,47,21.20
2013,07,22,17,49,21.20
2013,07,22,17,50,21.20
2013,07,22,17,55,21.10
2013,07,22,17,56,21.10
2013,07,22,17,58,21.10
2013,07,22,18,03,21.30
2013,07,22,18,04,21.30
2013,07,22,18,05,21.50
2013,07,22,18,06,21.60
2013,07,22,18,07,21.60
2013,07,22,18,08,21.60
2013,07,22,18,09,21.50
2013,07,22,18,10,21.50
2013,07,22,18,11,21.40
2013,07,22,18,12,21.40
2013,07,22,18,13,21.40
2013,07,22,18,14,21.30
2013,07,22,18,15,21.30
2013,07,22,18,16,21.30
2013,07,22,18,17,21.20
2013,07,22,18,18,21.20
2013,07,22,18,19,21.10
2013,07,22,18,20,21.10
2013,07,22,18,21,21.10
2013,07,22,18,22,21.20
2013,07,22,18,23,21.20
2013,07,22,18,24,21.20
2013,07,22,18,25,21.20
2013,07,22,18,26,21.20
2013,07,22,18,27,21.20
2013,07,22,18,28,21.20
2013,07,22,18,29,21.20
2013,07,22,18,30,21.20
2013,07,22,18,31,21.20
2013,07,22,19,26,20.60
2013,07,22,22,29,14.60
2013,07,22,22,30,14.60
